Simultaneous Nadir Overpasses (SNOs) Predictions

Prediction of SNOs between LANDSAT-8 and METOP-B Satellite Orbit:

Table of predicted SNOs for the next 14.0 days since TLE Epoch: 4/25/2014
Index Date (LANDSAT-8) Time (LANDSAT-8) Lat,Lon (LANDSAT-8) SZA (LANDSAT-8 ) Date (METOP-B) Time (METOP-B) Lat,Lon (METOP-B) SZA (METOP-B ) Distance(km) Time Diff (sec)
1 04/25/2014 23:41:36 -81.08, 43.15 110.30 04/25/2014 23:41:09 -81.08, 43.19 110.31 0.76 27
2 04/26/2014 00:31:01 81.11,-148.80 69.76 04/26/2014 00:31:47 81.11,-148.73 69.78 1.22 46
3 04/28/2014 19:15:48 -81.08, 109.61 111.18 04/28/2014 19:15:28 -81.08, 109.71 111.18 1.58 20
4 04/28/2014 20:05:13 81.11, -82.35 68.88 04/28/2014 20:06:06 81.11, -82.22 68.92 2.20 53
5 05/01/2014 14:50:00 -81.07, 175.83 112.06 05/01/2014 14:49:48 -81.07, 175.79 112.07 0.64 12
6 05/01/2014 15:39:25 81.09, -16.15 67.99 05/01/2014 15:40:26 81.10, -16.14 68.02 0.45 61
7 05/04/2014 10:24:09 -81.08,-117.49 112.85 05/04/2014 10:24:05 -81.08,-117.44 112.84 0.94 4
8 05/04/2014 11:13:34 81.11, 50.51 67.20 05/04/2014 11:14:43 81.11, 50.63 67.25 1.95 69
9 05/07/2014 05:08:53 81.06, 140.95 66.32 05/07/2014 05:07:44 81.06, 141.00 66.30 0.92 69




NCC Satellite Simultaneous Nadir Overpasses (SNOs) Prediction Service
